COSMOS 2584 (704K)

Last updated on Sat Apr 11 2026 00:03:25 GMT+0000 (Coordinated Universal Time)

1 63130U 25042A 26099.62869179 .00000039 00000+0 00000+0 0 9990 2 63130 65.0468 75.1314 0007183 238.5391 121.3856 2.13103671 8586
UTC large
Height (km)
Speed (km/s)
/
Latitude / Longitude
Inclination (degrees)
Orbital Period (minutes)
Azimuth
Elevation
Range (km)
Doppler Factor

Next 0 passes for location: London (51.5072 / 0.1276)

Sorry there are no passes over London.
COSMOS 2584 (704K)